This is the latest recevied weather packets stored in our database for station/object IW2MUC-12. If no packets are shown the sender has not sent any weather packets the latest 10 day(s).
| Time | Temp. | Humidity | Pressure | Rain* | Wind** | Luminosity | Snow |
|---|---|---|---|---|---|---|---|
| 1787506484 | 30.56° C | 38% | 991 hPa | - | - | - | - |
| 1787505880 | 31.11° C | 38% | 990 hPa | - | - | - | - |
| 1787505276 | 31.11° C | 37% | 991 hPa | - | - | - | - |
| 1787504672 | 31.67° C | 37% | 991 hPa | - | - | - | - |
| 1787504068 | 32.22° C | 36% | 991 hPa | - | - | - | - |
| 1787503464 | 32.78° C | 36% | 991 hPa | - | - | - | - |
| 1787502860 | 33.89° C | 35% | 991 hPa | - | - | - | - |
| 1787502256 | 34.44° C | 35% | 991 hPa | - | - | - | - |
| 1787501652 | 35° C | 35% | 991 hPa | - | - | - | - |
| 1787501048 | 36.11° C | 35% | 991 hPa | - | - | - | - |
| 1787500444 | 36.67° C | 34% | 991 hPa | - | - | - | - |
| 1787499840 | 37.22° C | 34% | 991 hPa | - | - | - | - |
| 1787499236 | 37.22° C | 35% | 991 hPa | - | - | - | - |
| 1787498632 | 36.67° C | 36% | 991 hPa | - | - | - | - |
| 1787498028 | 36.11° C | 37% | 991 hPa | - | - | - | - |
| 1787497424 | 35.56° C | 39% | 991 hPa | - | - | - | - |
| 1787496820 | 35° C | 38% | 991 hPa | - | - | - | - |
| 1787496215 | 182.78° C | 100% | - | - | - | - | - |
| 1787495611 | 35° C | 44% | 992 hPa | - | - | - | - |
| 1787495007 | 35° C | 43% | 992 hPa | - | - | - | - |
| 1787494403 | 35.56° C | 45% | 991 hPa | - | - | - | - |
| 1787493791 | 35° C | 53% | 991 hPa | - | - | - | - |
| 1787493187 | 35.56° C | 53% | 991 hPa | - | - | - | - |
| 1787492583 | 35.56° C | 53% | 991 hPa | - | - | - | - |
| 1787491979 | 35.56° C | 53% | 991 hPa | - | - | - | - |
* Rain since midnight (hover to see other rain measurements)
** Current wind speed in m/s (hover to see current wind gust speed)